Wind_Speed
38 42 44 43 42 43 42 44 44 44 42 45 47 49 46 42 43 41 37 34 27 25 21 17 8 9 9 5 2 13 14 18 28 39 48 58 65 62 65 65 64 63 60 55 52 52 49 48 45 49 54 55 49 45
37 40 43 42 40 42 43 41 42 42 38 39 45 49 51 48 46 44 38 33 27 21 22 17 13 11 9 13 8 7 11 20 23 31 43 49 60 61 62 62 63 60 60 58 55 53 50 49 47 44 48 50 49 46
35 38 41 39 39 40 39 40 42 40 37 35 40 46 48 46 49 44 39 34 27 21 21 19 16 10 11 13 16 11 10 13 27 24 30 41 49 60 61 61 59 60 59 58 55 54 48 51 48 43 41 43 44 43
34 35 38 37 36 38 38 37 40 39 33 33 36 42 44 43 44 46 42 38 32 24 20 18 16 15 3 14 17 17 13 13 19 30 26 35 39 53 57 60 60 56 56 56 53 56 51 50 50 44 38 37 38 41
32 32 36 35 34 37 37 37 37 35 30 28 37 40 42 43 44 41 42 40 36 34 24 22 18 14 13 3 17 17 16 12 11 18 31 34 39 41 55 57 62 60 57 56 55 55 53 51 51 46 39 35 38 38
30 30 34 34 33 34 36 35 34 34 28 28 33 39 37 43 42 41 39 37 35 36 34 27 25 21 24 20 4 20 19 14 15 13 18 31 34 45 51 56 57 58 58 58 56 55 56 55 53 49 39 37 37 37
28 28 31 32 31 32 34 32 33 32 27 26 31 36 34 37 37 39 38 34 34 35 35 32 25 23 19 24 21 7 21 18 11 12 14 21 35 39 46 57 55 56 59 58 60 57 57 58 57 55 48 43 42 43
26 27 28 30 30 30 31 33 30 30 33 26 27 32 32 28 31 40 45 44 40 37 37 34 31 27 23 27 32 28 12 12 17 13 16 18 22 38 48 49 57 63 60 58 60 61 58 59 58 58 56 54 50 47
26 27 26 28 28 27 29 29 27 28 30 28 23 26 28 17 21 31 36 40 46 49 51 51 53 47 43 35 27 25 27 30 21 6 12 13 19 34 49 50 55 66 73 65 63 65 64 64 63 61 60 59 56 55
25 25 26 27 27 24 25 27 29 28 26 26 21 19 16 11 16 27 32 36 39 43 44 44 50 55 57 58 58 54 48 42 36 27 29 26 11 6 26 43 55 62 74 74 69 68 68 69 68 67 64 62 60 58
23 25 26 27 26 22 20 23 28 26 20 25 22 19 13 13 12 23 30 32 33 35 40 42 36 45 48 54 58 54 52 49 45 41 33 16 17 21 6 19 43 58 70 76 77 67 67 69 68 68 67 65 62 61
22 24 25 27 27 20 16 18 22 23 22 21 24 22 13 11 18 22 25 29 32 37 33 34 32 33 41 45 54 55 53 47 44 40 39 33 24 17 17 8 5 33 63 78 82 80 73 69 72 71 69 69 67 66
21 23 24 25 27 23 16 14 14 16 19 19 16 15 14 18 19 21 21 22 26 29 30 31 29 22 28 35 41 47 50 49 44 42 37 26 23 23 22 14 11 11 23 45 80 91 86 77 73 76 75 75 75 74
19 21 22 24 26 26 19 15 14 14 15 16 16 16 16 19 19 19 17 18 24 25 24 24 25 27 24 28 34 40 40 42 41 43 43 38 26 21 24 19 15 15 13 24 40 74 93 92 84 77 78 79 81 81
19 20 20 21 25 26 19 17 15 14 14 15 13 14 15 17 19 18 13 13 16 21 22 20 24 22 21 22 26 30 31 30 32 32 31 32 37 36 26 23 16 19 19 7 22 33 55 84 95 92 87 81 87 85
19 20 21 21 22 21 22 20 16 16 17 16 13 14 15 17 17 14 10 12 15 16 16 13 15 17 21 20 19 20 22 24 24 24 24 28 32 32 37 27 23 15 13 19 10 17 29 35 61 90 98 96 87 85
18 20 22 24 25 24 24 21 18 18 17 17 16 13 12 12 11 11 10 11 12 13 14 16 18 20 19 20 18 19 19 19 19 22 25 26 27 28 30 30 30 23 21 17 13 13 12 27 38 47 67 91 102 95
19 21 24 25 26 26 26 22 19 19 17 19 20 16 13 15 14 12 12 13 15 19 19 19 18 17 15 16 16 17 17 17 18 20 22 26 28 27 24 25 23 29 32 25 17 16 18 11 14 32 44 58 78 91
21 25 27 26 24 24 24 22 20 22 23 23 17 17 11 12 12 13 13 16 16 17 18 19 20 19 18 18 18 17 17 16 17 20 24 26 25 23 20 19 18 18 23 27 19 15 12 20 11 4 16 32 47 64
21 25 24 22 24 23 24 23 19 19 18 17 17 14 10 18 15 14 15 13 11 13 15 16 18 20 20 19 18 18 20 23 24 24 23 22 21 20 17 16 15 15 14 19 25 22 18 9 14 5 6 10 17 23
23 25 25 23 24 26 23 22 19 16 19 17 15 13 13 15 11 5 9 10 11 13 19 19 17 17 19 18 17 17 19 22 23 23 22 22 21 20 20 18 16 15 15 14 12 17 23 18 20 10 5 5 7 20
23 25 26 24 27 29 24 20 21 20 19 17 16 12 11 11 11 11 11 11 16 16 18 19 19 19 20 21 21 21 22 22 23 23 24 25 24 22 21 21 21 18 16 14 12 11 10 13 11 11 14 10 19 18
21 25 26 27 28 26 21 19 22 21 18 15 13 11 11 10 8 7 7 9 13 13 16 21 22 23 22 22 22 22 24 26 28 29 30 30 28 26 24 22 20 20 19 16 14 13 13 13 16 13 8 4 8 13
17 23 24 27 26 24 20 21 21 18 17 16 14 13 12 11 12 14 16 18 19 20 22 25 29 28 28 28 28 28 29 29 30 30 30 30 30 30 28 26 24 23 21 20 19 16 16 18 20 21 16 16 12 7
19 22 25 26 25 23 21 21 21 19 17 16 14 13 14 14 15 18 20 21 22 24 27 29 28 29 28 28 29 30 30 30 29 28 28 29 30 31 30 30 27 26 26 26 25 22 21 21 23 26 27 26 25 24
20 22 24 25 23 22 22 22 22 21 19 18 17 16 16 17 18 20 23 25 26 28 28 28 29 29 30 32 34 35 35 34 34 33 33 32 33 35 36 35 34 34 33 31 31 30 29 28 28 28 30 33 35 35
19 20 22 22 22 22 21 21 23 22 21 20 19 18 17 19 22 23 24 24 27 26 30 30 31 32 34 36 38 39 39 38 38 38 38 41 40 35 30 29 29 31 33 34 34 34 34 33 32 32 33 33 34 35
18 19 21 22 23 25 24 23 23 22 23 22 22 23 23 23 23 24 24 27 29 31 30 30 32 34 36 38 40 41 42 43 44 47 47 44 39 34 33 33 33 33 31 31 31 32 33 34 34 33 33 34 35 35
18 19 20 22 23 25 26 25 25 24 25 24 25 26 26 26 27 27 29 31 31 30 32 34 36 38 40 42 43 44 45 45 44 42 40 38 37 36 36 35 34 32 30 29 28 27 27 27 28 29 30 30 31 33
17 17 19 22 24 25 26 27 26 26 27 25 26 28 27 27 27 23 31 36 30 32 34 39 47 47 45 46 46 45 43 42 41 39 36 34 32 30 28 26 24 23 23 23 23 24 24 25 25 26 26 27 28 29
18 19 21 23 24 25 27 28 27 27 29 28 30 31 31 32 32 33 32 31 31 34 32 48 48 46 46 43 40 40 41 39 36 33 31 29 28 25 23 20 19 18 17 16 16 15 15 16 16 17 17 18 19 21
20 21 22 23 24 25 27 28 28 28 28 28 29 30 32 32 31 32 29 32 27 28 42 44 44 43 39 38 38 38 35 32 30 28 26 24 22 20 19 18 16 15 13 12 10 9 7 6 6 6 7 7 8 10
21 23 24 26 27 28 29 29 29 28 27 28 29 30 32 32 31 31 33 33 32 36 38 39 36 35 35 34 32 31 29 27 25 24 23 22 22 21 20 19 18 17 16 15 14 13 11 10 9 8 6 5 4 3
Wind_Direction
343 345 347 347 351 350 351 354 354 354 359 1 6 8 8 5 2 1 355 352 351 349 13 26 283 285 278 289 157 172 198 208 211 214 209 204 201 195 198 202 206 207 205 209 212 214 215 217 220 216 222 225 227 224
342 344 347 348 349 350 355 353 354 357 1 5 8 10 10 12 14 10 4 357 353 354 2 13 16 252 234 229 245 181 198 207 204 206 212 208 208 197 197 200 205 209 209 210 213 213 214 215 219 221 221 225 225 225
342 343 348 348 349 353 354 356 357 359 2 5 5 6 4 11 18 19 14 7 4 2 3 10 7 1 225 197 216 216 223 200 198 195 206 209 212 206 198 199 201 206 209 209 210 211 211 215 218 221 222 223 227 225
343 343 348 349 349 351 354 353 355 357 1 6 8 11 5 5 9 18 23 21 18 17 12 13 7 8 0 215 204 201 211 219 203 200 196 201 209 212 207 202 199 201 206 209 209 209 208 210 216 219 222 223 225 228
343 344 348 348 349 351 350 351 355 358 359 5 5 9 7 3 5 8 22 24 26 31 23 17 16 21 30 233 216 201 200 201 209 209 207 205 205 210 213 207 203 199 202 208 209 209 207 207 211 216 220 220 219 226
342 344 348 349 349 351 350 354 359 359 354 3 7 10 12 5 8 6 17 24 28 35 35 26 24 18 30 32 209 211 213 203 223 227 218 216 214 214 215 213 207 206 204 207 209 208 208 207 209 214 215 218 214 215
340 342 346 350 348 352 356 0 1 359 355 2 9 13 12 9 27 31 33 33 34 39 42 37 32 39 42 30 44 157 205 216 215 232 234 224 219 217 218 217 214 209 208 208 211 209 207 207 208 212 210 209 212 212
340 342 343 349 349 353 353 356 0 359 0 2 16 18 14 23 45 31 38 43 45 46 50 51 48 44 40 47 56 64 91 199 212 211 224 232 228 225 218 215 221 217 210 210 210 210 210 210 209 210 211 211 211 211
342 342 343 347 347 349 356 355 359 356 359 360 7 19 16 32 24 29 33 45 54 59 63 65 66 68 66 60 57 63 63 68 74 128 206 226 243 237 224 221 220 221 215 208 210 213 212 214 215 214 213 214 216 218
343 344 343 348 346 348 352 357 357 354 0 2 6 19 20 20 16 34 44 49 65 56 52 57 61 64 65 65 64 63 64 59 64 69 65 62 60 242 242 244 235 230 225 217 213 213 214 217 218 219 217 217 218 221
342 343 346 347 349 347 349 0 6 7 6 20 17 14 26 17 25 46 52 49 53 43 37 41 56 61 65 66 60 62 58 57 57 61 61 66 24 22 22 227 233 237 233 229 220 214 215 215 216 220 221 220 221 220
342 343 343 347 352 346 339 348 359 5 15 25 11 8 20 26 40 38 49 51 43 37 28 26 40 53 52 60 62 59 56 53 55 56 40 41 25 18 21 24 246 232 234 234 230 220 216 215 215 215 217 221 222 225
344 342 340 346 351 349 339 335 343 357 1 22 17 338 351 5 6 18 25 40 48 40 30 21 32 42 49 54 58 61 62 53 56 54 36 41 35 18 8 5 356 299 245 238 234 230 223 222 219 216 215 216 219 222
340 341 338 341 346 347 343 329 324 326 341 354 11 359 13 15 16 26 40 57 61 53 38 20 25 32 36 43 56 62 57 55 51 48 42 35 24 11 4 1 6 358 318 246 232 234 231 230 228 225 219 216 218 219
335 339 339 339 345 347 346 335 323 319 321 324 347 353 12 19 24 32 42 52 57 57 47 19 5 7 17 31 38 41 44 49 49 45 36 34 31 23 9 5 4 15 12 324 237 227 227 232 231 231 227 222 218 219
333 335 338 339 342 350 347 337 328 322 319 317 318 324 339 355 6 17 20 6 13 29 36 24 15 10 11 4 18 32 34 32 32 30 25 22 23 19 20 10 4 5 2 17 343 247 242 232 230 231 231 229 223 221
331 333 337 339 339 343 342 333 334 333 323 313 310 307 304 309 327 332 335 331 325 329 335 342 345 346 355 353 354 2 8 13 7 3 0 1 4 9 12 13 13 359 359 348 342 344 307 251 240 232 229 229 230 227
334 335 333 334 337 337 343 338 333 336 333 330 317 311 304 308 292 294 306 317 323 324 329 333 334 343 345 345 341 340 343 347 352 357 358 357 355 357 1 8 5 18 21 11 353 336 339 321 253 236 232 232 227 227
340 335 333 333 338 339 334 335 335 334 331 327 328 330 312 314 291 290 298 298 307 315 313 317 323 326 330 332 330 330 329 330 332 335 338 345 348 348 350 356 1 10 9 21 13 337 335 321 339 268 227 229 233 230
351 345 341 342 343 340 332 330 335 337 344 337 335 354 2 347 312 315 303 317 328 324 320 321 323 321 321 324 323 320 318 317 318 322 331 334 333 336 338 336 342 349 358 0 360 24 34 43 32 98 147 188 200 204
344 347 346 342 345 344 340 338 344 347 347 343 345 332 346 353 353 358 313 314 317 319 326 328 324 318 326 324 322 317 309 312 321 324 323 317 319 320 324 329 332 331 331 335 340 343 352 24 50 70 209 213 219 221
346 347 349 348 346 346 342 344 345 346 346 343 344 341 346 340 331 324 320 319 334 346 355 348 340 334 333 333 329 323 318 316 316 320 325 328 330 329 326 321 317 315 311 305 303 304 303 322 325 74 95 217 236 250
347 348 350 351 349 348 351 350 348 345 347 350 351 349 350 342 336 339 340 338 337 339 343 343 343 340 334 332 329 330 334 336 334 332 329 327 325 321 319 317 315 313 312 306 290 275 269 264 275 286 291 140 160 185
347 349 353 354 353 354 355 355 353 352 351 352 347 343 349 349 340 330 326 326 327 326 327 333 340 341 337 334 334 335 334 331 328 325 323 321 318 317 314 311 307 300 295 291 289 280 265 255 252 256 246 258 260 228
348 355 356 359 359 1 2 0 357 350 343 342 340 341 342 340 334 331 334 337 338 334 331 330 330 329 327 326 328 328 326 324 322 320 317 314 312 310 307 304 299 295 291 288 282 275 268 260 252 246 246 247 242 243
358 1 3 3 2 1 0 0 360 357 354 349 344 338 336 335 335 331 330 331 332 331 331 329 326 325 327 328 328 327 325 322 320 317 315 312 309 306 302 297 292 290 286 280 277 274 271 266 258 252 247 243 240 242
358 4 7 7 6 3 0 0 3 3 1 360 358 352 344 339 337 336 334 328 327 327 328 326 327 329 330 328 326 324 322 320 318 315 313 313 311 305 298 294 291 286 281 277 275 271 267 264 261 258 254 250 249 246
354 360 3 5 5 6 4 2 360 1 2 1 359 359 355 351 347 343 338 332 329 328 330 331 333 332 328 326 325 324 323 322 321 319 319 316 313 307 303 302 299 293 286 278 271 268 267 264 260 258 257 256 253 250
349 354 357 359 0 1 1 1 360 358 357 355 355 355 353 348 345 343 340 336 332 332 340 341 335 331 331 330 328 326 324 324 323 321 319 315 310 307 305 302 299 295 292 289 285 280 274 270 265 262 260 259 257 256
349 351 355 358 0 1 358 356 355 356 356 354 350 350 349 349 346 339 326 335 328 319 323 327 331 334 332 330 329 329 329 328 326 324 323 321 317 314 310 307 304 301 297 293 289 284 279 274 272 269 266 262 260 257
348 350 355 355 357 359 357 355 349 346 351 350 348 348 345 343 344 341 339 334 327 306 307 321 331 331 332 332 333 332 331 332 332 334 335 335 335 334 333 331 328 323 318 312 307 301 295 288 281 275 271 267 266 264
351 350 349 350 353 352 351 353 353 349 347 346 345 339 339 341 341 342 341 329 308 295 318 328 329 332 334 336 335 336 338 341 345 349 352 354 355 356 355 355 355 357 359 1 359 354 348 340 324 309 296 284 275 269
350 350 350 352 351 351 350 349 350 351 348 346 341 340 342 341 336 333 332 331 325 323 327 331 335 338 339 340 344 349 355 0 3 7 12 15 15 16 19 20 21 23 26 29 31 34 39 42 44 41 34 25 9 347
Height
5768 5760 5752 5743 5734 5725 5716 5706 5697 5688 5678 5669 5658 5646 5634 5623 5613 5603 5595 5586 5580 5574 5570 5567 5565 5565 5566 5568 5569 5572 5578 5582 5587 5596 5605 5616 5626 5638 5651 5663 5674 5687 5698 5708 5719 5728 5738 5747 5754 5761 5767 5774 5784 5795
5765 5758 5750 5741 5732 5724 5715 5706 5697 5688 5679 5670 5660 5649 5639 5627 5616 5605 5597 5588 5580 5575 5571 5568 5565 5563 5564 5568 5571 5573 5577 5581 5586 5593 5602 5613 5622 5633 5644 5656 5668 5681 5692 5704 5713 5722 5733 5741 5749 5756 5762 5769 5778 5788
5762 5756 5748 5740 5731 5723 5714 5706 5698 5689 5680 5672 5663 5653 5643 5632 5620 5609 5600 5590 5582 5577 5573 5567 5564 5561 5562 5564 5567 5573 5575 5578 5583 5590 5599 5609 5618 5627 5638 5649 5662 5673 5684 5696 5707 5716 5728 5737 5743 5750 5757 5765 5772 5781
5760 5753 5746 5738 5731 5723 5715 5707 5698 5690 5682 5674 5666 5657 5647 5637 5626 5614 5603 5595 5586 5579 5574 5569 5565 5561 5560 5561 5564 5569 5574 5578 5582 5588 5595 5604 5613 5620 5631 5642 5653 5666 5677 5688 5700 5711 5722 5730 5738 5745 5752 5760 5767 5774
5757 5750 5744 5737 5730 5722 5714 5706 5699 5691 5683 5676 5669 5660 5651 5641 5632 5619 5609 5599 5591 5584 5578 5573 5567 5563 5560 5559 5562 5567 5572 5577 5582 5588 5594 5602 5609 5618 5626 5639 5650 5659 5671 5681 5692 5704 5715 5725 5732 5739 5747 5756 5762 5768
5754 5748 5742 5735 5728 5721 5713 5705 5699 5692 5685 5677 5670 5663 5656 5647 5638 5626 5614 5604 5596 5588 5581 5578 5573 5567 5562 5560 5559 5564 5571 5577 5582 5588 5593 5599 5606 5615 5624 5635 5647 5659 5668 5675 5684 5695 5707 5717 5726 5733 5742 5750 5757 5764
5752 5746 5740 5734 5727 5721 5713 5706 5699 5693 5687 5679 5672 5665 5659 5653 5644 5635 5623 5613 5603 5595 5588 5583 5578 5574 5570 5565 5561 5562 5569 5576 5582 5587 5592 5596 5604 5611 5623 5636 5646 5652 5659 5667 5676 5688 5698 5707 5717 5726 5735 5743 5751 5758
5749 5743 5738 5733 5726 5720 5713 5706 5699 5694 5688 5681 5673 5667 5663 5659 5653 5643 5634 5622 5612 5603 5596 5591 5586 5580 5577 5575 5571 5570 5571 5575 5581 5586 5591 5595 5601 5609 5622 5634 5633 5641 5650 5658 5665 5676 5688 5699 5708 5716 5725 5733 5742 5750
5746 5742 5736 5731 5725 5719 5713 5706 5700 5694 5689 5684 5676 5670 5667 5665 5659 5651 5644 5633 5624 5617 5609 5604 5596 5589 5585 5583 5581 5581 5580 5582 5583 5586 5589 5596 5602 5611 5615 5613 5618 5623 5633 5643 5652 5665 5677 5689 5698 5706 5714 5723 5731 5740
5744 5739 5734 5729 5724 5718 5712 5707 5701 5695 5690 5685 5679 5674 5672 5669 5665 5659 5649 5643 5635 5630 5622 5618 5612 5605 5598 5593 5591 5590 5590 5590 5592 5594 5595 5600 5603 5605 5607 5615 5622 5627 5634 5642 5649 5657 5667 5677 5687 5696 5706 5712 5719 5728
5742 5737 5732 5728 5722 5717 5712 5707 5702 5696 5692 5686 5682 5678 5675 5672 5668 5661 5654 5651 5645 5639 5632 5629 5624 5618 5613 5606 5602 5600 5599 5598 5598 5602 5602 5604 5605 5605 5605 5605 5611 5618 5624 5630 5640 5650 5656 5666 5676 5685 5695 5701 5708 5714
5740 5735 5730 5726 5720 5715 5711 5707 5703 5699 5694 5688 5684 5682 5679 5676 5670 5664 5658 5652 5650 5646 5643 5640 5635 5629 5624 5618 5610 5607 5605 5603 5604 5604 5604 5604 5607 5606 5604 5604 5604 5606 5610 5615 5623 5635 5644 5653 5662 5672 5683 5692 5699 5704
5738 5733 5729 5724 5719 5714 5709 5705 5702 5699 5696 5691 5688 5686 5682 5677 5673 5666 5661 5656 5653 5652 5650 5649 5645 5638 5633 5626 5620 5614 5611 5610 5607 5608 5608 5607 5607 5606 5603 5601 5600 5599 5597 5596 5602 5614 5627 5639 5648 5658 5668 5679 5685 5693
5735 5731 5727 5722 5717 5712 5708 5704 5701 5698 5695 5691 5688 5686 5683 5677 5673 5667 5663 5660 5657 5655 5653 5653 5652 5647 5641 5636 5628 5622 5621 5615 5614 5612 5611 5610 5607 5604 5600 5597 5594 5591 5586 5583 5586 5596 5610 5621 5633 5643 5653 5661 5669 5680
5732 5729 5725 5720 5715 5709 5705 5702 5699 5695 5693 5690 5688 5685 5681 5677 5673 5669 5667 5664 5659 5657 5654 5656 5655 5651 5645 5640 5635 5629 5625 5622 5619 5618 5616 5612 5609 5604 5600 5596 5590 5585 5581 5579 5579 5582 5588 5598 5609 5619 5630 5639 5650 5661
5728 5726 5721 5717 5713 5708 5703 5699 5695 5693 5690 5687 5684 5682 5680 5677 5674 5671 5669 5667 5664 5661 5658 5656 5655 5651 5647 5643 5638 5634 5631 5628 5625 5623 5620 5616 5612 5607 5602 5596 5590 5584 5581 5578 5577 5578 5579 5579 5585 5592 5603 5620 5630 5640
5725 5722 5719 5714 5709 5705 5701 5696 5692 5689 5686 5684 5681 5679 5677 5676 5674 5672 5669 5666 5663 5661 5660 5657 5653 5650 5647 5643 5640 5636 5632 5630 5627 5624 5620 5617 5614 5609 5604 5598 5592 5586 5581 5578 5575 5574 5572 5570 5572 5575 5582 5591 5607 5623
5723 5719 5715 5711 5706 5701 5697 5692 5689 5685 5682 5679 5676 5675 5673 5671 5670 5669 5667 5663 5661 5658 5655 5653 5651 5648 5645 5642 5639 5636 5633 5630 5626 5623 5620 5616 5612 5608 5604 5599 5594 5589 5581 5573 5569 5568 5565 5562 5558 5559 5565 5572 5583 5594
5720 5716 5711 5706 5702 5697 5694 5690 5686 5682 5679 5675 5671 5670 5668 5666 5664 5662 5662 5661 5658 5655 5653 5650 5647 5645 5643 5641 5637 5634 5630 5628 5625 5621 5617 5613 5609 5605 5602 5597 5593 5589 5585 5579 5572 5568 5563 5560 5556 5554 5555 5560 5566 5573
5717 5713 5707 5703 5698 5694 5690 5686 5682 5678 5674 5671 5668 5664 5661 5659 5659 5658 5657 5655 5653 5651 5648 5646 5644 5643 5640 5637 5634 5631 5627 5624 5621 5617 5613 5610 5606 5603 5600 5597 5592 5588 5584 5580 5576 5571 5568 5563 5561 5559 5558 5558 5561 5564
5715 5710 5705 5701 5696 5692 5687 5682 5678 5675 5672 5669 5666 5663 5661 5659 5657 5655 5653 5652 5650 5648 5646 5644 5642 5639 5637 5634 5630 5626 5623 5618 5615 5611 5609 5607 5603 5599 5595 5592 5589 5586 5583 5580 5577 5573 5569 5567 5564 5562 5563 5563 5561 5563
5713 5708 5703 5698 5694 5688 5684 5679 5676 5673 5670 5667 5664 5662 5659 5658 5655 5653 5651 5649 5647 5645 5642 5639 5637 5634 5630 5627 5624 5621 5617 5614 5610 5606 5602 5598 5595 5592 5589 5586 5583 5581 5579 5577 5576 5574 5571 5568 5565 5563 5562 5562 5564 5565
5711 5707 5702 5697 5692 5687 5683 5678 5675 5671 5668 5666 5663 5661 5658 5656 5655 5653 5651 5648 5646 5643 5640 5637 5634 5631 5627 5623 5619 5615 5611 5607 5603 5598 5594 5591 5588 5585 5583 5580 5577 5575 5572 5572 5571 5569 5568 5567 5564 5564 5564 5564 5563 5561
5709 5705 5700 5695 5691 5686 5681 5678 5674 5671 5668 5665 5662 5660 5657 5655 5653 5651 5648 5646 5643 5640 5636 5633 5628 5624 5621 5617 5613 5610 5606 5602 5598 5594 5589 5585 5581 5578 5575 5573 5570 5568 5567 5565 5563 5562 5562 5560 5559 5558 5560 5560 5559 5560
5709 5705 5701 5695 5690 5686 5681 5678 5674 5670 5667 5664 5662 5659 5656 5653 5651 5647 5644 5642 5639 5635 5631 5627 5624 5621 5617 5613 5609 5605 5601 5596 5592 5588 5583 5579 5574 5569 5566 5562 5561 5559 5557 5555 5554 5553 5552 5551 5551 5550 5551 5552 5552 5553
5707 5703 5699 5695 5690 5686 5682 5678 5674 5670 5666 5663 5659 5656 5654 5651 5648 5645 5641 5637 5634 5630 5626 5622 5619 5615 5610 5605 5600 5596 5591 5587 5582 5578 5573 5569 5565 5560 5556 5552 5547 5544 5542 5541 5541 5539 5539 5538 5538 5539 5539 5539 5541 5543
5706 5703 5699 5695 5690 5686 5682 5678 5674 5670 5666 5662 5658 5655 5652 5649 5645 5642 5638 5633 5629 5625 5621 5617 5612 5607 5602 5596 5591 5586 5581 5576 5571 5566 5561 5555 5551 5546 5542 5538 5534 5531 5528 5525 5524 5523 5523 5523 5524 5523 5523 5525 5526 5527
5706 5702 5699 5695 5690 5686 5681 5677 5674 5670 5666 5662 5658 5654 5650 5646 5642 5638 5633 5629 5624 5619 5615 5611 5606 5601 5595 5589 5582 5576 5569 5563 5556 5549 5543 5537 5532 5529 5525 5522 5520 5517 5514 5511 5510 5508 5507 5507 5508 5509 5509 5508 5509 5512
5705 5702 5698 5694 5689 5685 5680 5676 5672 5668 5664 5660 5656 5652 5647 5643 5638 5634 5629 5623 5618 5613 5608 5604 5599 5593 5586 5580 5573 5566 5559 5552 5545 5538 5531 5526 5520 5515 5510 5506 5503 5500 5498 5496 5495 5494 5493 5493 5493 5494 5495 5496 5496 5496
5705 5701 5697 5693 5688 5684 5679 5675 5671 5666 5662 5658 5653 5648 5644 5640 5635 5630 5625 5619 5612 5606 5601 5595 5589 5583 5577 5570 5562 5555 5547 5540 5533 5526 5519 5513 5507 5503 5499 5495 5492 5489 5486 5485 5483 5482 5481 5481 5481 5481 5482 5483 5484 5486
5703 5699 5695 5691 5687 5683 5679 5674 5670 5665 5661 5656 5651 5646 5641 5636 5631 5626 5621 5615 5608 5599 5594 5589 5582 5576 5569 5561 5554 5547 5539 5531 5524 5517 5511 5505 5499 5494 5490 5487 5484 5481 5479 5476 5474 5473 5472 5471 5471 5471 5472 5473 5473 5474
5701 5698 5694 5690 5686 5682 5678 5673 5668 5664 5659 5654 5650 5644 5638 5633 5627 5622 5617 5612 5604 5597 5592 5585 5578 5570 5563 5555 5548 5541 5533 5526 5519 5513 5507 5501 5496 5492 5488 5484 5481 5478 5475 5473 5471 5469 5468 5467 5466 5466 5466 5466 5467 5468
5700 5696 5692 5688 5684 5679 5675 5671 5666 5662 5657 5652 5647 5641 5635 5630 5624 5618 5612 5607 5601 5594 5586 5579 5572 5565 5558 5552 5545 5537 5530 5524 5519 5513 5508 5503 5498 5494 5489 5485 5482 5479 5476 5474 5472 5470 5469 5468 5467 5466 5466 5465 5465 5465